CW9968 Weather Reports


time (UTC)temp
F
wind
direction
speed
knots
gust
knots
rain 1hr
in
rain 24hr
in
rain mn
in
humidity
%
barometer
mb
20260906090804 66 334 0.0 0.0 0.00 0.00 0.00 88 1016.6
20260906090304 67 334 0.0 0.0 0.00 0.00 0.00 88 1016.5
20260906085804 67 334 0.0 0.0 0.00 0.00 0.00 88 1016.6
20260906085306 67 335 0.0 0.9 0.00 0.00 0.00 88 1016.5
20260906084304 67 334 0.0 0.9 0.00 0.00 0.00 88 1016.5
20260906083803 68 335 0.0 1.7 0.00 0.00 0.00 88 1016.4
20260906083304 68 335 0.0 0.9 0.00 0.00 0.00 88 1016.4
20260906081304 68 335 0.0 0.0 0.00 0.00 0.00 88 1016.3
20260906080304 69 335 0.0 0.0 0.00 0.00 0.00 88 1016.4
20260906075804 69 334 0.0 0.0 0.00 0.00 0.00 88 1016.4
20260906075306 69 334 0.0 0.0 0.00 0.00 0.00 88 1016.5
20260906074804 69 334 0.0 0.0 0.00 0.00 0.00 88 1016.5
20260906074304 69 334 0.0 0.0 0.00 0.00 0.00 88 1016.5
20260906073804 69 334 0.0 0.0 0.00 0.00 0.00 88 1016.5
20260906072804 70 334 0.0 0.0 0.00 0.00 0.00 88 1016.5
20260906072306 70 335 0.0 0.0 0.00 0.00 0.00 88 1016.4
20260906071804 70 334 0.0 0.0 0.00 0.00 0.00 88 1016.4
20260906071304 70 334 0.0 0.0 0.00 0.00 0.00 88 1016.5
20260906070303 70 334 0.0 0.0 0.00 0.00 0.00 88 1016.5
20260906065305 71 335 0.0 0.0 0.00 0.00 0.00 88 1016.4
20260906064804 71 335 0.0 0.0 0.00 0.00 0.00 88 1016.3
20260906063804 71 334 0.0 0.0 0.00 0.00 0.00 88 1016.3
20260906063305 71 334 0.0 0.0 0.00 0.00 0.00 88 1016.3
20260906062804 71 335 0.0 0.0 0.00 0.00 0.00 88 1016.3
20260906061304 71 334 0.0 0.0 0.00 0.00 0.00 88 1016.4
20260906060804 71 334 0.0 0.0 0.00 0.00 0.00 88 1016.3
20260906060304 71 335 0.0 0.0 0.00 0.00 0.00 88 1016.3
20260906055804 71 335 0.0 0.0 0.00 0.00 0.00 88 1016.3
20260906055306 71 334 0.0 0.0 0.00 0.00 0.00 88 1016.3
20260906054804 71 335 0.0 0.0 0.00 0.00 0.00 88 1016.1
20260906054304 71 334 0.0 0.0 0.00 0.00 0.00 88 1016.1
20260906053805 71 334 0.0 0.0 0.00 0.00 0.00 88 1016.0
20260906052804 71 334 0.0 0.0 0.00 0.00 0.00 88 1016.0
20260906052305 71 334 0.0 0.0 0.00 0.00 0.00 88 1016.0
20260906051803 71 335 0.0 0.0 0.00 0.00 0.00 88 1016.1
20260906051305 71 335 0.0 0.0 0.00 0.00 0.00 88 1016.1
20260906050803 71 334 0.0 0.0 0.00 0.00 0.00 88 1016.2
20260906050304 71 334 0.0 0.0 0.00 0.00 0.00 88 1016.1
20260906045804 71 334 0.0 0.0 0.00 0.00 0.00 88 1016.2
20260906045306 71 334 0.0 0.0 0.00 0.00 0.00 88 1016.2
20260906044804 71 334 0.0 0.0 0.00 0.00 0.00 88 1016.1
20260906044304 71 334 0.0 0.0 0.00 0.00 0.00 88 1015.9
20260906043804 71 334 0.0 0.0 0.00 0.00 0.00 88 1015.9
20260906042804 71 334 0.0 0.0 0.00 0.00 0.00 88 1015.7
20260906042306 71 334 0.0 0.0 0.00 0.00 0.00 88 1015.8
20260906040304 71 334 0.0 0.0 0.00 0.00 0.00 88 1015.7
20260906035804 71 334 0.0 0.0 0.00 0.00 0.00 88 1015.6
20260906035306 71 334 0.0 0.0 0.00 0.00 0.00 88 1015.5
20260906034803 71 334 0.0 0.0 0.00 0.00 0.00 88 1015.3
20260906034304 71 334 0.0 0.0 0.00 0.00 0.00 88 1015.3
20260906033804 71 334 0.0 0.0 0.00 0.00 0.00 88 1015.3
20260906033304 71 334 0.0 0.0 0.00 0.00 0.00 88 1015.3
20260906032804 71 334 0.0 0.0 0.00 0.00 0.00 88 1015.4
20260906032306 71 334 0.0 0.0 0.00 0.00 0.00 88 1015.3
20260906031804 71 334 0.0 0.0 0.00 0.00 0.00 88 1015.3
20260906031304 71 334 0.0 0.0 0.00 0.00 0.00 88 1015.3
20260906030804 71 334 0.0 0.0 0.00 0.00 0.00 88 1015.3
20260906030304 72 334 0.0 0.0 0.00 0.00 0.00 88 1015.2
20260906025803 72 334 0.0 0.0 0.00 0.00 0.00 87 1015.2
20260906025306 72 334 0.0 0.0 0.00 0.00 0.00 87 1015.2
20260906024804 72 334 0.0 0.0 0.00 0.00 0.00 87 1015.0
20260906024304 72 334 0.0 0.0 0.00 0.00 0.00 87 1015.1
20260906023804 72 334 0.0 0.0 0.00 0.00 0.00 88 1015.0
20260906023304 72 334 0.0 0.0 0.00 0.00 0.00 87 1015.0
20260906022804 72 334 0.0 0.0 0.00 0.00 0.00 87 1015.0
20260906021304 73 334 0.0 0.0 0.00 0.00 0.00 87 1014.7
20260906020304 73 334 0.0 0.0 0.00 0.00 0.00 87 1014.8
20260906015306 74 334 0.0 0.9 0.00 0.00 0.00 86 1014.8
20260906014805 74 334 0.0 0.0 0.00 0.00 0.00 86 1014.8
20260906014304 74 334 0.0 0.0 0.00 0.00 0.00 86 1014.7
20260906013805 74 334 0.0 0.0 0.00 0.00 0.00 85 1014.6
20260906013304 74 334 0.0 0.0 0.00 0.00 0.00 85 1014.5
20260906012804 75 334 0.9 2.6 0.00 0.00 0.00 84 1014.5
20260906012306 75 334 0.9 2.6 0.00 0.00 0.00 84 1014.2
20260906011804 75 335 1.7 4.3 0.00 0.00 0.00 84 1014.3
20260906011304 76 335 0.9 4.3 0.00 0.00 0.00 84 1014.2
20260906010804 76 335 1.7 4.3 0.00 0.00 0.00 84 1013.9
20260906010305 76 335 2.6 5.2 0.00 0.00 0.00 84 1013.9
20260906005804 76 335 1.7 4.3 0.00 0.00 0.00 85 1013.7
20260906005306 76 334 0.0 0.9 0.00 0.00 0.00 86 1013.6
20260906004804 76 334 0.0 0.0 0.00 0.00 0.00 85 1013.7
20260906004304 76 334 0.0 0.0 0.00 0.00 0.00 85 1013.5
20260906003805 76 334 0.0 0.0 0.00 0.00 0.00 85 1013.5
20260906003304 77 334 0.0 0.0 0.00 0.00 0.00 84 1013.4
20260906002306 77 334 0.0 0.9 0.00 0.00 0.00 84 1013.3
20260906001304 78 334 0.0 0.9 0.00 0.00 0.00 83 1013.2
20260906000804 78 334 0.0 0.0 0.00 0.00 0.00 83 1013.3
20260906000304 78 334 0.0 0.9 0.00 0.00 0.00 82 1013.2
20260905235804 79 334 0.0 0.0 0.00 0.00 0.00 82 1013.0
20260905235306 79 334 0.0 0.0 0.00 0.00 0.00 82 1013.1
20260905234304 79 334 0.0 1.7 0.00 0.00 0.00 81 1013.1
20260905233804 80 334 0.0 0.0 0.00 0.00 0.00 81 1013.2
20260905233304 80 334 0.0 0.0 0.00 0.00 0.00 81 1013.2
20260905232804 80 334 0.0 0.9 0.00 0.00 0.00 81 1013.2
20260905232306 80 334 0.0 0.9 0.00 0.00 0.00 81 1013.1
20260905225804 81 334 0.0 1.7 0.00 0.00 0.00 81 1012.7
20260905224804 81 334 0.0 0.9 0.00 0.00 0.00 80 1012.5
20260905224305 82 334 0.0 0.0 0.00 0.00 0.00 80 1012.5
20260905223804 82 334 0.9 2.6 0.00 0.00 0.00 79 1012.4
20260905222805 82 334 0.0 1.7 0.00 0.00 0.00 80 1012.1
20260905222306 82 334 0.9 2.6 0.00 0.00 0.00 80 1012.2
20260905221804 82 334 0.9 1.7 0.00 0.00 0.00 80 1012.3
20260905221303 82 334 0.0 0.9 0.00 0.00 0.00 80 1012.2
20260905220804 83 334 0.0 1.7 0.00 0.00 0.00 81 1012.2
20260905220304 83 334 0.0 0.0 0.00 0.00 0.00 82 1012.1
20260905215804 83 334 0.0 0.9 0.00 0.00 0.00 81 1012.2
20260905215306 83 334 0.0 2.6 0.00 0.00 0.00 79 1012.0
20260905214804 83 334 0.0 1.7 0.00 0.00 0.00 77 1012.0
20260905214305 83 334 0.0 0.0 0.00 0.00 0.00 77 1012.0
20260905213304 85 334 0.9 2.6 0.00 0.00 0.00 73 1011.8
20260905212805 86 334 0.0 1.7 0.00 0.00 0.00 74 1011.7
20260905212306 86 334 0.0 2.6 0.00 0.00 0.00 73 1011.6
20260905211804 86 334 0.0 1.7 0.00 0.00 0.00 73 1011.7
20260905211305 86 334 0.0 0.9 0.00 0.00 0.00 73 1011.6
20260905210804 86 334 0.0 0.9 0.00 0.00 0.00 73 1011.6
20260905210304 86 334 0.9 2.6 0.00 0.00 0.00 72 1011.7
20260905205804 86 334 0.0 0.9 0.00 0.00 0.00 72 1011.8
20260905204804 87 334 0.0 0.0 0.00 0.00 0.00 71 1011.9
20260905204303 87 334 0.0 0.0 0.00 0.00 0.00 72 1012.0
20260905203804 87 334 0.0 0.9 0.00 0.00 0.00 73 1011.9
20260905203304 87 335 0.0 2.6 0.00 0.00 0.00 73 1012.0
20260905202803 87 335 0.0 0.0 0.00 0.00 0.00 72 1012.0
20260905202306 87 335 0.0 0.0 0.00 0.00 0.00 72 1012.0
20260905201804 87 335 0.0 0.9 0.00 0.00 0.00 73 1012.1
20260905201304 87 335 0.0 0.0 0.00 0.00 0.00 74 1012.2
20260905200804 87 335 0.0 0.0 0.00 0.00 0.00 73 1012.3
20260905200304 87 335 0.0 0.9 0.00 0.00 0.00 72 1012.4
20260905195804 87 335 0.0 0.0 0.00 0.00 0.00 73 1012.4
20260905194804 88 335 0.0 0.9 0.00 0.00 0.00 72 1012.3
20260905194304 88 335 0.0 0.9 0.00 0.00 0.00 73 1012.6
20260905193803 88 335 0.0 0.9 0.00 0.00 0.00 73 1012.6
20260905193304 88 335 0.0 0.0 0.00 0.00 0.00 74 1012.6
20260905192804 88 335 0.0 0.0 0.00 0.00 0.00 72 1012.7
20260905192306 88 335 0.0 0.0 0.00 0.00 0.00 73 1012.7
20260905191804 88 335 0.0 0.0 0.00 0.00 0.00 72 1012.9
20260905191304 88 335 0.0 0.0 0.00 0.00 0.00 75 1012.9
20260905190805 87 334 0.0 0.9 0.00 0.00 0.00 75 1012.9
20260905190304 87 335 0.0 0.0 0.00 0.00 0.00 77 1012.9
20260905185306 86 335 0.0 0.0 0.00 0.00 0.00 75 1012.9
20260905184804 86 335 0.0 0.0 0.00 0.00 0.00 75 1012.9
20260905184304 86 335 0.0 0.0 0.00 0.00 0.00 78 1013.0
20260905183804 85 335 0.0 0.0 0.00 0.00 0.00 78 1013.0
20260905183304 85 335 0.0 0.0 0.00 0.00 0.00 79 1013.2
20260905182804 85 335 0.0 0.0 0.00 0.00 0.00 78 1013.1
20260905182306 84 335 0.0 0.0 0.00 0.00 0.00 78 1013.3
20260905181804 84 335 0.0 0.0 0.00 0.00 0.00 80 1013.2
20260905181304 83 335 0.0 0.0 0.00 0.00 0.00 78 1013.3
20260905180804 83 335 0.0 0.0 0.00 0.00 0.00 80 1013.3
20260905180304 83 335 0.0 0.0 0.00 0.00 0.00 79 1013.4
20260905175804 83 335 0.0 0.0 0.00 0.00 0.00 80 1013.4
20260905175306 82 335 0.0 0.0 0.00 0.00 0.00 81 1013.5
20260905174304 82 335 0.0 0.0 0.00 0.00 0.00 80 1013.5
20260905173804 81 335 0.0 0.0 0.00 0.00 0.00 80 1013.7
20260905173304 82 335 0.0 0.0 0.00 0.00 0.00 80 1013.7
20260905172804 82 335 0.0 0.0 0.00 0.00 0.00 80 1013.8
20260905172305 81 335 0.0 0.0 0.00 0.00 0.00 80 1013.8
20260905171804 81 335 0.0 0.0 0.00 0.00 0.00 80 1013.9
20260905170804 80 335 0.0 0.0 0.00 0.00 0.00 81 1014.0
20260905170304 80 335 0.0 0.0 0.00 0.00 0.00 80 1014.2
20260905165306 80 335 0.0 0.0 0.00 0.00 0.00 80 1014.2
20260905164304 80 335 0.0 0.0 0.00 0.00 0.00 81 1014.1
20260905163804 80 335 0.0 0.0 0.00 0.00 0.00 82 1014.1
20260905163305 80 335 0.0 0.0 0.00 0.00 0.00 82 1014.3
20260905162804 80 335 0.0 0.0 0.00 0.00 0.00 82 1014.3
20260905162306 80 335 0.0 0.0 0.00 0.00 0.00 83 1014.2
20260905161304 71 3 0.0 0.0 0.00 0.00 0.00 88 1014.1
20260905160804 71 3 0.0 0.0 0.00 0.00 0.00 88 1014.1
20260905160304 71 3 0.0 0.0 0.00 0.00 0.00 88 1014.1
20260905154804 71 3 0.0 0.0 0.00 0.00 0.00 88 1014.5
20260905154304 71 2 0.0 0.0 0.00 0.00 0.00 88 1014.4
20260905153804 71 3 0.0 0.0 0.00 0.00 0.00 88 1014.5
20260905153304 71 3 0.0 0.0 0.00 0.00 0.00 88 1014.5
20260905152805 71 3 0.0 0.0 0.00 0.00 0.00 88 1014.4
20260905152306 71 3 0.0 0.0 0.00 0.00 0.00 88 1014.4
20260905151804 71 3 0.0 0.0 0.00 0.00 0.00 88 1014.4
20260905151304 71 3 0.0 0.0 0.00 0.00 0.00 88 1014.2
20260905150304 71 3 0.0 0.0 0.00 0.00 0.00 88 1014.1
20260905144804 71 3 0.0 0.0 0.00 0.00 0.00 88 1014.0
20260905144304 71 3 0.0 0.0 0.00 0.00 0.00 88 1014.1
20260905143803 71 3 0.0 0.0 0.00 0.00 0.00 88 1014.1
20260905143304 71 3 0.0 0.0 0.00 0.00 0.00 88 1014.0
20260905142803 71 3 0.0 0.0 0.00 0.00 0.00 88 1013.9
20260905142306 71 3 0.0 0.0 0.00 0.00 0.00 88 1013.9
20260905141804 71 2 0.0 0.0 0.00 0.00 0.00 88 1013.8
20260905141304 71 3 0.0 0.0 0.00 0.00 0.00 88 1013.7
20260905140804 71 3 0.0 0.0 0.00 0.00 0.00 88 1013.7
20260905140304 71 3 0.0 0.0 0.00 0.00 0.00 88 1013.7
20260905135804 71 3 0.0 0.0 0.00 0.00 0.00 88 1013.6
20260905135306 71 3 0.0 0.0 0.00 0.00 0.00 88 1013.6
20260905134804 71 2 0.0 0.0 0.00 0.00 0.00 88 1013.5
20260905134304 71 3 0.0 0.0 0.00 0.00 0.00 88 1013.5
20260905133804 71 3 0.0 0.0 0.00 0.00 0.00 88 1013.5
20260905133306 71 3 0.0 0.0 0.00 0.00 0.00 88 1013.6
20260905132804 71 1 0.0 0.0 0.00 0.00 0.00 88 1013.6
20260905132305 71 2 0.0 0.0 0.00 0.00 0.00 88 1013.4
20260905131303 71 3 0.0 0.0 0.00 0.00 0.00 88 1013.4
20260905130804 71 3 0.0 0.0 0.00 0.00 0.00 88 1013.3
20260905130304 71 3 0.0 0.0 0.00 0.00 0.00 88 1013.3
20260905125804 71 3 0.0 0.0 0.00 0.00 0.00 88 1013.3
20260905124804 71 2 0.0 0.0 0.00 0.00 0.00 88 1013.3
20260905124304 71 3 0.0 0.0 0.00 0.00 0.00 88 1013.3
20260905123805 71 2 0.0 0.0 0.00 0.00 0.00 88 1013.3
20260905123304 71 335 0.0 0.0 0.00 0.00 0.00 88 1013.3
20260905122804 71 335 0.0 0.0 0.00 0.00 0.00 88 1013.2
20260905122306 71 334 0.0 0.0 0.00 0.00 0.00 88 1013.1
20260905121804 71 334 0.0 0.0 0.00 0.00 0.00 88 1013.3
20260905121304 71 334 0.0 0.0 0.00 0.00 0.00 88 1013.2
20260905120304 71 334 0.0 0.0 0.00 0.00 0.00 88 1013.2
20260905115804 71 334 0.0 0.0 0.00 0.00 0.00 88 1013.0
20260905115306 71 334 0.0 0.9 0.00 0.00 0.00 88 1013.0
20260905114804 72 334 0.0 0.0 0.00 0.00 0.00 88 1012.9
20260905114304 72 334 0.0 0.0 0.00 0.00 0.00 88 1012.8
20260905113804 72 334 0.0 0.0 0.00 0.00 0.00 88 1012.8
20260905113306 72 334 0.0 0.0 0.00 0.00 0.00 88 1012.6
20260905112803 72 334 0.0 0.0 0.00 0.00 0.00 88 1012.7
20260905112306 72 334 0.0 0.0 0.00 0.00 0.00 88 1012.7
20260905111804 72 334 0.0 0.0 0.00 0.00 0.00 88 1012.8
20260905110804 73 334 0.0 0.0 0.00 0.00 0.00 88 1012.7
20260905110304 73 334 0.0 0.0 0.00 0.00 0.00 88 1012.7
20260905105804 73 334 0.0 1.7 0.00 0.00 0.00 88 1012.7
20260905105306 73 334 0.0 0.0 0.00 0.00 0.00 88 1012.5
20260905104803 73 334 0.0 1.7 0.00 0.00 0.00 88 1012.3
20260905104304 74 335 0.0 0.0 0.00 0.00 0.00 88 1012.2
20260905103804 74 334 0.0 0.0 0.00 0.00 0.00 88 1012.3
20260905102805 74 335 0.0 0.0 0.00 0.00 0.00 88 1012.3
20260905102306 74 334 0.0 0.0 0.00 0.00 0.00 88 1012.4
20260905101804 74 335 0.0 0.0 0.00 0.00 0.00 88 1012.4
20260905101304 74 335 0.0 0.0 0.00 0.00 0.00 88 1012.5
20260905100304 74 335 0.0 1.7 0.00 0.00 0.00 88 1012.4
20260905095804 74 335 0.0 0.0 0.00 0.00 0.00 88 1012.5
20260905095306 74 334 0.0 0.9 0.00 0.00 0.00 88 1012.5
20260905094804 74 335 0.0 0.0 0.00 0.00 0.00 88 1012.6
20260905094304 73 334 0.0 0.0 0.00 0.00 0.00 88 1012.7
20260905093804 74 335 0.0 0.0 0.00 0.00 0.00 87 1012.7
20260905093305 74 335 0.0 0.0 0.00 0.00 0.00 88 1012.7
20260905092804 74 335 0.0 0.0 0.00 0.00 0.00 87 1012.8
20260905092306 74 334 0.0 0.0 0.00 0.00 0.00 88 1012.8
20260905091304 74 335 0.0 0.0 0.00 0.00 0.00 88 1012.7